Date,TemperatureHighF,TemperatureAvgF,TemperatureLowF,DewpointHighF,DewpointAvgF,DewpointLowF,HumidityHigh,HumidityAvg,HumidityLow,PressureMaxIn,PressureMinIn,WindSpeedMaxMPH,WindSpeedAvgMPH,GustSpeedMaxMPH,PrecipitationSumIn
2013-9-1,80.0,75.1,72.3,75.0,72.7,71.0,97,92,82,29.79,29.74,7,2,10,0.01
2013-9-2,81.1,71.7,64.0,74.0,69.6,63.0,98,93,78,29.76,29.64,8,2,14,0.56
2013-9-3,75.3,66.1,60.6,67.0,63.1,57.0,99,90,63,29.82,29.68,6,1,11,0.09
2013-9-4,79.4,66.3,55.1,62.0,57.6,54.0,98,76,51,29.94,29.83,8,2,14,0.10
2013-9-5,70.4,63.3,52.6,60.0,52.8,44.0,91,70,46,30.13,29.86,12,3,16,0.00
2013-9-6,68.0,55.7,44.4,50.0,44.9,41.0,93,69,38,30.24,30.09,7,1,11,0.00
2013-9-7,75.7,62.1,50.2,59.0,51.6,44.0,83,70,47,30.09,29.84,10,4,11,0.00
2013-9-8,75.1,64.7,53.5,65.0,54.4,44.0,87,70,46,30.06,29.77,12,4,17,0.00
2013-9-9,70.1,57.8,44.2,56.0,48.7,42.0,95,73,52,30.21,30.05,9,3,14,0.00
2013-9-10,79.7,69.9,62.1,74.0,66.9,57.0,97,90,81,30.13,29.98,15,7,17,0.00
2013-9-11,92.5,79.7,70.1,80.0,73.9,67.0,97,83,64,30.06,29.89,10,4,18,0.00
2013-9-12,81.8,72.9,67.5,75.0,69.7,66.0,97,89,77,29.91,29.61,9,4,21,0.00
2013-9-13,72.1,64.1,52.8,67.0,60.7,48.0,98,89,73,29.80,29.57,10,2,15,0.00
2013-9-14,62.8,54.7,47.6,53.0,48.6,45.0,91,81,64,30.08,29.80,8,2,14,0.00
2013-9-15,67.6,54.5,43.2,54.0,47.9,42.0,97,80,50,30.18,30.04,6,2,9,0.00
2013-9-16,66.9,57.7,46.8,57.0,52.4,42.0,93,83,67,30.25,30.00,10,3,15,0.00
2013-9-17,62.4,49.9,39.2,47.0,42.5,37.0,93,77,55,30.42,30.25,11,2,13,0.00
2013-9-18,70.8,55.3,42.4,52.0,46.5,41.0,97,75,44,30.32,30.13,8,2,9,0.00
2013-9-19,75.7,60.2,47.9,56.0,50.3,45.0,92,72,40,30.15,30.01,6,3,9,0.00
2013-9-20,78.8,64.1,53.1,60.0,54.9,50.0,90,74,47,30.06,29.93,9,3,12,0.00
2013-9-21,73.3,64.2,56.6,65.0,60.4,55.0,96,88,74,29.96,29.59,16,8,22,0.00
2013-9-22,66.4,59.0,50.7,65.0,52.3,42.0,97,79,59,29.87,29.58,10,3,16,0.00
2013-9-23,60.3,51.4,43.4,46.0,42.1,39.0,85,71,57,30.02,29.87,12,4,16,0.00
2013-9-24,69.2,52.8,38.8,51.0,43.7,37.0,96,74,49,30.02,29.83,6,2,10,0.00
2013-9-25,69.3,55.6,43.0,56.0,48.2,40.0,95,78,52,29.94,29.84,5,1,10,0.00
2013-9-26,65.7,56.8,49.9,54.0,50.6,48.0,97,81,59,30.09,29.93,8,2,13,0.00
2013-9-27,64.5,55.4,47.2,55.0,50.9,46.0,96,85,69,30.25,30.09,5,1,8,0.00
2013-9-28,73.4,57.8,46.4,58.0,51.9,45.0,97,82,53,30.32,30.20,6,1,7,0.00
2013-9-29,73.8,58.9,48.4,59.0,52.6,47.0,97,81,51,30.21,30.02,5,1,7,0.00
2013-9-30,72.7,58.9,48.9,57.0,51.7,47.0,95,79,51,30.06,29.92,4,1,9,0.00